SCP
0 0 1 1 0 0 0 0 0 0 0 0 0 0 0 0 0 0 0 0 0 0 0 0 0 0 0 0 0 0 0 0 0 0 0 0 0 0 0 0 0 0 0
0 0 1 1 0 0 0 0 0 0 0 0 0 0 0 0 0 0 0 0 0 0 0 0 0 0 0 0 0 0 0 0 0 0 0 0 0 0 0 0 0 0 0
0 0 1 1 1 1 1 1 1 1 1 1 0 0 0 0 0 0 0 0 0 0 0 0 0 0 0 0 0 0 0 0 0 0 0 0 0 0 0 0 0 0 0
0 0 1 1 1 1 1 1 1 1 1 1 1 0 0 0 0 0 0 0 0 0 0 0 0 0 0 0 0 0 0 0 0 0 0 0 0 0 0 0 0 0 0
0 0 1 1 1 1 1 1 1 1 1 1 1 0 0 0 0 0 0 0 0 0 0 0 0 0 0 0 0 0 0 0 0 0 0 0 0 0 0 0 0 0 0
0 0 1 1 1 1 1 1 1 1 1 1 1 0 0 0 0 0 0 0 0 0 0 0 0 0 0 0 0 0 0 0 0 0 0 0 0 0 0 0 0 0 0
0 0 1 1 1 1 1 1 1 1 1 1 1 1 0 0 0 0 0 0 0 0 0 0 0 0 0 0 0 0 0 0 0 0 0 0 0 0 0 0 0 0 0
0 0 1 1 1 1 1 1 1 1 1 1 1 0 0 0 0 0 0 0 0 0 0 0 0 0 0 0 0 0 0 0 0 0 0 0 0 0 0 0 0 0 0
0 0 1 1 1 1 1 1 1 1 1 1 0 0 0 0 0 0 0 0 0 0 0 0 0 0 0 0 0 0 0 0 0 0 0 0 0 0 0 0 0 0 0
1 1 1 0 0 1 1 1 1 1 1 1 0 0 0 0 0 0 0 0 0 0 0 0 0 0 0 0 0 0 0 0 0 0 0 0 0 0 0 0 0 0 0
1 1 1 1 0 0 1 1 1 1 0 0 0 0 0 0 0 0 0 0 0 0 0 0 0 0 0 0 0 0 0 0 0 0 0 0 0 0 0 0 0 0 0
1 1 1 1 1 1 1 1 1 0 0 0 0 0 0 0 0 0 0 0 0 0 0 0 0 0 0 0 0 0 0 0 0 0 0 0 0 0 0 0 0 0 0
1 1 1 1 1 1 1 1 1 1 1 0 0 0 0 0 0 0 0 0 0 0 0 0 0 0 0 0 0 0 0 0 0 0 0 0 0 0 0 0 0 0 0
1 1 1 1 1 1 1 1 1 1 1 1 1 1 1 0 0 0 0 0 0 0 0 0 0 0 0 0 0 0 0 0 0 0 0 0 0 0 0 0 0 0 0
1 1 1 1 1 1 1 1 1 1 1 1 1 1 1 1 1 0 0 0 0 0 0 0 0 0 0 0 0 0 0 0 0 0 0 0 0 0 0 0 0 0 0
1 1 1 1 1 1 1 1 1 1 1 1 1 1 1 1 1 0 0 0 0 0 0 0 0 0 0 0 0 0 0 0 0 0 0 0 0 0 0 0 0 0 0
1 1 1 1 1 1 1 1 1 1 1 1 1 1 1 1 1 1 0 0 0 0 0 0 0 0 0 0 0 0 0 0 0 0 0 0 0 0 0 0 0 0 0
1 1 1 1 1 1 1 1 1 1 1 1 1 1 1 1 1 1 0 0 0 0 0 0 0 0 0 0 0 0 0 0 0 0 0 0 0 0 0 0 0 0 0
1 1 1 1 1 1 1 1 1 1 1 1 1 1 0 0 0 0 0 0 0 0 0 0 0 0 0 0 0 0 0 0 0 0 0 0 0 0 0 0 0 0 0
1 1 1 1 1 1 1 1 1 1 1 1 1 0 0 0 0 0 0 0 0 0 0 0 0 0 0 0 0 0 0 0 0 0 0 0 0 0 0 0 0 0 0
1 1 1 1 1 1 1 1 1 1 0 0 0 0 0 0 0 0 0 0 0 0 0 0 0 0 0 0 0 0 0 0 0 0 0 0 0 0 0 0 0 0 0
1 1 1 1 1 1 1 1 1 0 0 0 0 0 0 0 0 0 0 0 0 0 0 0 0 0 0 0 0 0 0 0 0 0 0 0 0 0 0 0 0 0 0
1 1 1 1 1 1 1 1 0 0 0 0 0 0 0 0 0 0 0 0 0 0 0 0 0 0 0 0 0 0 0 0 0 0 0 0 0 0 0 0 0 0 0
1 1 1 1 1 1 1 1 0 0 0 0 0 0 0 0 0 0 0 0 0 0 0 0 0 0 0 0 0 0 0 0 0 0 0 0 0 0 0 0 0 0 0
1 1 1 1 1 1 1 1 0 0 0 0 0 0 0 0 0 0 0 0 0 0 0 0 0 0 0 0 0 0 0 0 0 0 0 0 0 0 0 0 0 0 0
1 1 1 1 1 1 1 1 0 0 0 0 0 0 0 0 0 0 0 0 0 0 0 0 0 0 0 0 0 0 0 0 0 0 0 0 0 0 0 0 0 0 0
Wind_Speed
9 12 15 11 10 10 10 10 11 11 12 12 12 12 12 12 11 11 11 11 10 11 11 11 11 11 10 10 10 10 10 10 10 10 11 10 9 9 9 8 7 8 11
11 13 15 12 11 10 10 10 10 11 11 11 11 11 11 11 11 10 10 10 10 10 10 11 10 10 10 10 9 9 9 10 10 9 9 10 9 8 7 6 3 7 10
11 14 15 12 12 11 10 10 10 11 11 11 11 11 11 11 11 10 10 10 9 10 10 10 10 10 9 8 8 8 8 8 8 7 6 6 9 8 7 6 7 8 9
12 12 13 14 12 11 11 10 10 11 11 11 11 11 11 11 10 10 10 10 9 9 9 9 9 9 8 7 7 7 7 7 6 5 4 4 6 9 6 6 7 7 8
11 11 13 14 12 11 11 11 10 11 11 11 11 10 10 10 10 9 10 10 9 9 8 9 8 8 8 7 6 6 6 5 4 5 3 4 5 9 6 6 6 7 7
12 12 14 13 12 11 11 11 11 10 10 10 10 10 10 10 10 9 9 9 9 8 8 8 7 7 7 7 6 6 5 4 6 3 3 3 5 8 6 6 6 6 7
11 11 14 13 12 12 11 10 10 10 9 9 9 9 9 9 9 8 8 8 8 8 8 8 7 6 6 6 6 5 4 2 4 2 2 2 5 7 5 5 5 5 7
11 11 13 13 12 11 11 10 10 9 9 8 8 8 8 8 8 8 8 8 8 8 8 7 7 6 6 6 6 5 3 3 3 2 2 3 8 6 5 4 5 5 7
10 10 11 12 12 12 10 10 10 9 8 8 8 8 8 8 8 8 7 8 7 7 7 7 7 6 6 6 6 5 4 3 3 2 3 4 8 6 5 5 4 5 7
9 9 9 10 10 11 11 11 10 9 8 8 8 8 8 8 8 8 8 8 7 7 7 6 6 6 6 6 6 5 4 5 2 2 3 6 8 6 5 4 4 4 6
8 8 8 9 9 8 9 10 10 10 9 9 8 8 8 8 8 8 7 7 7 7 7 7 6 6 6 7 6 5 5 3 2 2 3 8 7 5 5 4 4 4 4
10 9 8 8 8 8 6 7 7 7 8 7 7 8 6 4 4 4 8 7 7 6 7 7 6 7 7 6 7 7 3 2 1 3 5 8 6 5 4 4 3 3 3
9 9 8 7 7 7 5 5 4 4 5 6 7 7 5 4 4 4 4 6 6 7 6 7 7 4 4 2 3 3 1 1 1 2 6 7 5 4 3 3 2 2 3
8 8 8 8 7 6 5 5 5 4 4 4 6 6 5 4 3 3 3 4 4 3 3 3 2 3 3 3 3 3 3 2 1 2 5 7 5 3 3 2 2 2 3
7 7 7 7 7 6 5 4 4 4 4 4 5 5 5 4 4 4 3 3 3 3 4 3 3 3 3 3 3 2 2 2 2 2 4 7 5 4 2 2 2 2 2
7 7 6 7 7 6 5 4 4 4 4 4 4 5 5 4 4 4 4 4 3 3 2 2 3 3 2 2 2 2 2 2 2 2 2 6 6 4 3 2 1 1 2
7 7 6 7 6 6 6 5 4 4 4 4 4 5 5 5 5 4 4 4 3 3 3 2 3 3 3 3 2 2 2 1 2 1 1 2 4 6 5 2 2 1 1
6 6 6 5 6 6 5 5 4 4 4 4 4 5 5 5 5 4 4 4 3 3 3 3 3 3 2 2 2 2 2 2 2 2 2 2 1 2 5 5 3 3 3
6 6 6 6 6 6 5 5 4 4 4 4 4 4 5 5 5 4 3 3 4 3 3 3 3 2 2 2 3 3 2 2 3 3 2 2 2 2 2 6 6 5 4
6 6 6 6 6 6 5 4 4 4 4 3 4 4 5 5 5 4 4 4 4 3 3 2 3 2 2 2 2 2 2 2 3 2 3 2 2 3 3 2 4 6 6
6 6 6 6 6 5 5 5 5 5 4 4 3 5 5 5 5 4 4 5 4 4 3 4 3 4 3 2 3 3 3 4 3 3 3 2 2 3 2 3 3 2 4
7 7 7 7 7 6 5 4 3 4 4 4 4 4 5 5 5 5 4 4 4 3 4 4 3 2 2 3 3 3 3 4 4 4 3 4 3 3 3 3 2 3 3
7 7 6 7 7 7 6 5 4 4 4 4 5 5 5 6 6 4 5 4 4 4 4 4 4 4 3 3 3 3 3 2 1 4 4 3 3 3 3 3 4 3 4
7 7 7 7 7 7 7 6 7 6 5 5 5 4 5 6 6 5 5 5 4 3 3 5 4 3 4 4 3 3 3 3 3 2 4 4 4 4 4 4 4 4 4
6 6 6 6 7 7 7 7 7 6 5 5 5 5 5 5 5 5 5 4 4 4 3 3 3 4 4 4 3 3 3 3 5 4 3 2 3 3 3 4 3 4 4
5 5 5 6 6 7 7 7 7 7 6 6 6 6 6 5 5 5 5 4 4 3 4 4 4 5 4 4 4 4 4 3 3 3 3 4 3 2 3 3 4 3 3
Wind_Direction
151 140 140 149 149 147 143 140 137 136 134 132 131 130 130 129 126 124 121 119 118 118 117 114 114 113 110 107 105 104 104 105 111 116 118 120 123 122 124 132 146 130 119
145 140 143 151 152 150 147 143 140 138 136 134 133 133 133 132 130 126 124 123 122 122 119 116 115 114 113 112 107 103 103 105 110 116 124 128 124 124 127 129 104 107 126
144 141 150 153 153 152 149 146 142 141 140 139 138 137 137 135 134 133 131 127 124 123 120 118 117 115 113 113 108 105 105 106 113 126 159 150 126 122 129 133 122 126 131
145 147 153 150 155 154 152 149 146 144 144 144 144 142 142 141 139 137 135 132 127 124 124 122 119 116 115 115 109 107 108 108 118 168 173 126 127 120 130 135 138 140 138
146 150 143 152 156 156 154 152 150 149 146 145 147 147 146 146 144 143 140 137 131 127 125 124 121 119 120 118 113 111 113 121 150 213 132 124 118 117 128 134 140 143 147
151 155 143 157 158 157 156 156 153 151 149 147 145 147 147 149 151 149 146 142 137 134 131 127 125 123 122 124 123 121 125 142 214 178 125 136 125 119 131 138 144 148 155
154 153 146 155 159 160 159 158 156 154 152 149 146 145 147 150 152 152 150 147 144 143 139 134 130 127 124 124 125 126 136 189 251 122 116 133 97 112 132 140 145 152 157
154 154 144 154 161 163 162 161 159 157 155 152 149 148 147 149 154 153 152 151 147 144 141 140 134 129 126 127 128 131 143 234 206 125 128 110 90 109 127 135 142 154 156
157 157 156 162 165 166 166 163 161 159 158 157 156 155 154 153 155 155 153 150 148 148 145 143 137 135 132 133 134 133 148 217 240 144 129 94 95 104 113 111 123 136 143
160 161 162 167 169 173 170 167 165 163 162 160 158 157 157 160 160 160 163 153 155 156 152 147 145 143 139 139 138 143 169 220 208 132 112 98 98 102 106 105 104 117 135
165 166 170 172 173 179 173 162 170 169 168 170 167 164 179 179 168 168 151 148 156 154 151 148 148 150 155 151 149 167 206 211 134 91 86 92 100 101 101 97 100 106 124
173 174 174 176 176 178 173 165 179 182 172 185 173 173 185 173 171 159 135 153 156 157 155 148 155 174 198 169 163 194 204 181 146 123 100 99 104 105 98 91 90 104 114
174 175 174 175 177 179 176 175 176 179 171 183 177 179 178 177 172 170 160 160 167 175 172 159 182 187 179 161 169 174 181 190 146 126 111 112 112 111 105 100 103 113 121
178 181 180 175 177 183 183 180 179 179 175 178 174 189 179 179 176 165 170 160 168 168 162 171 170 154 161 163 182 183 182 195 146 118 111 118 119 125 128 126 128 144 141
184 185 182 180 178 179 181 190 182 183 179 172 174 180 182 182 177 165 160 157 163 153 161 174 159 151 168 177 186 181 176 162 150 138 125 127 130 130 133 135 144 155 166
185 188 183 184 179 178 182 187 180 184 178 178 174 172 185 182 167 166 165 161 158 162 155 168 155 164 177 174 173 164 176 149 142 159 145 142 146 146 149 161 178 189 196
183 183 182 182 175 180 186 189 181 180 179 178 168 171 182 180 164 170 164 170 161 157 155 170 168 179 175 175 168 168 172 167 154 167 199 189 163 164 171 179 192 220 237
180 177 176 181 173 179 186 190 181 175 174 174 167 169 175 172 166 175 172 171 162 169 171 173 194 188 179 186 177 186 173 177 188 200 214 216 211 180 170 173 197 219 238
174 174 173 176 171 175 177 175 169 165 172 171 168 168 166 168 169 178 171 157 176 178 180 192 171 196 185 186 190 190 201 201 201 203 219 234 222 233 210 164 187 208 224
168 170 171 171 167 168 167 167 167 167 169 170 167 162 166 170 171 176 166 165 180 174 175 180 171 189 207 206 220 195 218 216 219 206 229 220 226 233 236 223 203 188 196
168 171 173 170 164 168 167 173 174 172 172 167 166 162 169 168 165 176 165 165 187 178 181 186 191 183 196 197 220 212 212 214 214 223 235 241 217 227 236 237 251 249 191
177 177 173 175 171 177 170 173 168 168 172 170 169 169 172 170 171 178 176 180 179 176 185 190 197 201 192 205 235 229 217 198 202 211 219 224 234 235 235 233 254 253 267
183 183 181 180 179 181 172 168 161 164 168 170 177 175 178 179 181 189 185 193 185 197 183 193 194 202 206 211 239 260 259 253 201 189 216 227 230 241 248 244 240 243 250
188 186 183 182 180 180 181 180 179 179 180 181 181 170 174 182 184 186 190 196 200 203 186 201 193 207 218 220 211 247 286 322 280 232 204 206 224 237 247 258 253 232 240
185 186 185 184 183 183 186 186 191 192 186 175 175 167 177 176 183 184 191 195 200 204 194 210 197 221 225 236 234 229 233 235 249 269 265 244 229 229 237 247 259 255 242
177 180 182 182 186 185 187 190 198 195 189 179 180 174 181 174 179 180 191 194 203 202 193 203 209 213 229 237 248 246 243 248 247 254 262 267 271 259 252 252 247 244 243